Weather History for Dayton Wright, OH

Change the Weather History Date:

Tuesday, December 4, 2012

  Actual Average (KFFO) Record (KFFO)
Temperature  
Mean Temperature 52 °F -  
Max Temperature 64 °F 43 °F 68 °F (1998)
Min Temperature 39 °F 29 °F 14 °F (2002)
Degree Days  
Heating Degree Days 12    
Growing Degree Days 2 (Base 50)    
Moisture  
Dew Point 51 °F    
Average Humidity 87    
Maximum Humidity 100    
Minimum Humidity 75    
Precipitation  
Precipitation 0.30 in - - ()
Sea Level Pressure  
Sea Level Pressure 30.07 in    
Wind  
Wind Speed 11 mph (SW)    
Max Wind Speed 23 mph    
Max Gust Speed 29 mph    
Visibility 8 miles    
Events Rain , Thunderstorm    
Averages and records for this station are not official NWS values.
T = Trace of Precipitation, MM = Missing Value Source: NWS Daily Summary

Daily Weather History Graph

Daily Weather History Graph

Search for Another Location

Airport:

Trip Planner

Search our weather history database for the weather conditions in past years. The results will help you decide how hot, cold, wet, or windy it might be!

Date:

Astronomy

Dec. 04, 2012 Rise Set
Actual Time 7:41 AM EST 5:12 PM EST
Civil Twilight 7:11 AM EST 5:42 PM EST
Nautical Twilight 6:38 AM EST 6:16 PM EST
Astronomical Twilight 6:05 AM EST 6:48 PM EST
Moon 10:58 PM EST (12/4) 11:36 AM EST (12/4)
Length of Visible Light 10h 30m
Length of Day
9h 31m
Waning Gibbous, 69% of the Moon is Illuminated
Dec 4
Waning Gibbous
Dec 6
Last Quarter
Dec 13
New
Dec 20
First Quarter
Dec 28
Full

Hourly Weather History & Observations

Time (EST) Temp. Windchill Dew Point Humidity Pressure Visibility Wind Dir Wind Speed Gust Speed Precip Events Conditions
1:53 AM 60.1 °F - 52.0 °F 75% 30.07 in 10.0 mi SSW 10.4 mph - N/A   Overcast
2:53 AM 59.0 °F - 52.0 °F 78% 30.07 in 10.0 mi South 12.7 mph - N/A   Overcast
3:53 AM 57.9 °F - 51.1 °F 78% 30.06 in 10.0 mi South 9.2 mph - N/A   Overcast
4:53 AM 59.0 °F - 51.1 °F 75% 30.05 in 10.0 mi South 10.4 mph - N/A   Overcast
5:53 AM 57.9 °F - 50.0 °F 75% 30.04 in 10.0 mi South 11.5 mph - N/A   Overcast
6:53 AM 57.9 °F - 50.0 °F 75% 30.06 in 10.0 mi South 10.4 mph - N/A   Overcast
7:53 AM 57.9 °F - 51.1 °F 78% 30.06 in 10.0 mi South 11.5 mph - N/A   Overcast
8:53 AM 59.0 °F - 52.0 °F 78% 30.06 in 10.0 mi South 11.5 mph - N/A   Mostly Cloudy
9:43 AM 60.8 °F - 53.6 °F 77% 30.07 in 10.0 mi SSW 11.5 mph 19.6 mph N/A   Mostly Cloudy
9:53 AM 61.0 °F - 53.1 °F 75% 30.06 in 10.0 mi SSW 13.8 mph 18.4 mph N/A   Mostly Cloudy
10:53 AM 62.1 °F - 55.0 °F 78% 30.06 in 10.0 mi SSW 13.8 mph - N/A   Overcast
11:53 AM 62.1 °F - 55.0 °F 78% 30.04 in 10.0 mi SSW 9.2 mph - N/A   Overcast
12:53 PM 64.0 °F - 57.0 °F 78% 30.01 in 10.0 mi SSW 15.0 mph 19.6 mph N/A   Overcast
1:53 PM 63.0 °F - 57.0 °F 81% 30.00 in 8.0 mi SW 12.7 mph - 0.00 in Rain Light Rain
1:59 PM 62.6 °F - 57.2 °F 82% 30.00 in 1.8 mi SW 11.5 mph - 0.06 in Rain Heavy Rain
2:16 PM 60.8 °F - 59.0 °F 94% 30.00 in 3.0 mi SW 11.5 mph - 0.14 in Rain Light Rain
2:22 PM 60.8 °F - 59.0 °F 94% 30.00 in 8.0 mi SW 8.1 mph - 0.14 in   Overcast
2:53 PM 61.0 °F - 60.1 °F 97% 29.99 in 5.0 mi SW 8.1 mph - 0.15 in Rain Light Rain
3:15 PM 60.8 °F - 59.0 °F 94% 30.00 in 1.8 mi SW 10.4 mph - 0.02 in Rain Rain
3:28 PM 60.8 °F - 60.8 °F 100% 30.00 in 1.8 mi SW 9.2 mph - 0.04 in Rain Light Rain
3:50 PM 53.6 °F - 53.6 °F 100% 30.03 in 3.0 mi NNW 23.0 mph 28.8 mph 0.12 in Rain Rain
3:53 PM 53.1 °F - 52.0 °F 96% 30.04 in 4.0 mi NW 18.4 mph 27.6 mph 0.12 in Rain Light Rain
4:02 PM 51.8 °F - 51.8 °F 100% 30.04 in 10.0 mi NNW 21.9 mph 27.6 mph 0.00 in Rain Light Rain
4:10 PM 51.8 °F - 50.0 °F 94% 30.04 in 10.0 mi North 17.3 mph 23.0 mph 0.00 in Thunderstorm Overcast
4:23 PM 50.0 °F - 48.2 °F 94% 30.05 in 10.0 mi NNW 11.5 mph 26.5 mph 0.00 in   Overcast
4:53 PM 46.0 °F 39.9 °F 45.0 °F 96% 30.08 in 10.0 mi North 13.8 mph - 0.01 in   Overcast
5:53 PM 45.0 °F 39.7 °F 42.1 °F 90% 30.12 in 9.0 mi North 10.4 mph 19.6 mph 0.00 in Rain Light Rain
6:07 PM 44.6 °F 39.7 °F 41.0 °F 87% 30.11 in 10.0 mi North 9.2 mph 18.4 mph 0.01 in Rain Light Rain
6:53 PM 45.0 °F 40.6 °F 42.1 °F 90% 30.15 in 10.0 mi NNW 8.1 mph - 0.01 in Rain Light Rain
7:53 PM 45.0 °F 43.5 °F 43.0 °F 93% 30.17 in 10.0 mi NW 3.5 mph - 0.01 in   Overcast
8:53 PM 43.0 °F - 41.0 °F 93% 30.16 in 10.0 mi Calm Calm - N/A   Mostly Cloudy
9:53 PM 43.0 °F - 42.1 °F 97% 30.18 in 10.0 mi Calm Calm - N/A   Clear
10:53 PM 41.0 °F - 41.0 °F 100% 30.19 in 10.0 mi Calm Calm - N/A   Clear
11:53 PM 39.9 °F - - N/A% 30.19 in 7.0 mi Calm Calm - N/A   Clear